Location: Makakahi
(40.6833°S, 175.6000°E)
Time: 18:53:52
(UTC+00:00)

FENGYUN 1C DEB - Pass Details

Date: 09 February 2026
Orbit: 839 x 906 km, 98.9° (Epoch: 9 March)

Event Time Altitude Azimuth Distance (km) Brightness Sun altitude
Rises 09:21:15 0° 169° (S) 3,438 ? -19.3°
Reaches altitude 10° 09:23:38 10° 170° (S) 2,501 ? -19.6°
Maximum altitude 09:29:10 73° 253° (WSW) 904 ? -20.4°
Drops below altitude 10° 09:34:43 10° 337° (NNW) 2,507 ? -21.2°
Enters shadow 09:35:57 - 338° (NNW) 2,994 ? -21.3°
